Location: Linz
(48.3300°N, 14.3000°E)
Time: 17:26:11
(UTC+01:00)

Envisat - Pass Details

Date: 19 November 2017
Orbit: 764 x 766 km, 98.2° (Epoch: 22 November)

Event Time Altitude Azimuth Distance (km) Brightness Sun altitude
Exits shadow 19:49:53 14° 344° (NNW) 2,025 5.4 -34.6°
Drops below altitude 10° 19:50:37 10° 344° (NNW) 2,313 5.7 -34.7°
Sets 19:52:56 0° 346° (NNW) 3,244 6.5 -35.1°
